COSMOS 1275 DEB, 42228

Orbit data source: Space-Track

COSMOS 1275 DEB, 42228 is space debris in LEO originally from a launch on Thu, 04 Jun 1981 UTC launched from the Plesetsk Missile And Space Complex (PKMTR). Debris objects in space refer to the collection of defunct objects orbiting the Earth. Examples of debris include non-operational satellites, rocket bodies, and fragments generated from explosions, collisions, or faulty payload assembly.

Loading next visibility...
Identifier
42228, 1981-053UU
Orbit
LEO
Country
Flag of CISCIS
Related business
Manufacturer
Unknown
Mission
Spacecraft
Bus & Motor
Unknown
Mass
Unknown
Launch date (UTC)
1981-06-04 (44 years ago)
Launch vehicle
Unknown
Launch site
Plesetsk Missile And Space Complex (PKMTR)
Object type
Payload
Rocket body
Debris
Shape & HBR
Unknown
Radar Cross Section
Small (<0.1 m²)

Expand to show TLE details & history
Last TLE update: 2 days ago

TLE from 2 days ago
0 COSMOS 1275 DEB
1 42228U 81053UU  25258.63587766  .00000482  00000-0  42838-3 0  9997
2 42228  82.9354  29.5448 0041072  65.8774 294.6674 13.82422401 43804
Epoch: 2025-09-15T15:15Z
TLE epoch observation values (Epoch: 2025-09-15T15:15:39.829Z)
Latitude
0.00003°
Longitude
165.79116°
Altitude
945.747 km
Speed
7.385 km/s
True Right ascension
01h 58m 10s
True Declination
0° 00' 00"
Sunlit
Object was in full shadow at epoch
Visualization orbit readout
Latitude
Unknown
Longitude
Unknown
Altitude
Unknown
Speed
Unknown
Apparent Right ascension
Unknown
Apparent Declination
Unknown
Sunlit
N/A
Visualization observer readout
Local Sidereal Time
10:43:45
Azimuth
Unknown
Elevation
Unknown
Doppler factor
Unknown
Orbital elements
Apogee altitude
982.554 km
Perigee altitude
922.338 km
Semi-major axis
7,330.583 km
Eccentricity
0.00411
Inclination
82.9354°
RAAN
29.5448°
Arg. of periapsis
65.8774°
True anomaly
294.23878°
Mean anomaly
294.6674°
Eccentric anomaly
294.45318°
Mean motion
3.45808 °/min
Orbital period
104.1 mins
BSTAR
0.00042838
Loading maneuver chart data...
Computing Atmospheric mass density...
Loading historical data...
Loading historical data...
Loading historical data...
Loading historical data...
Loading historical data...
Loading historical data...
Loading historical data...

Documentation

Showing up to 5 results
|